DW9080 Weather Reports


time (UTC)temp
C
wind
direction
speed
KPH
gust
KPH
rain 1hr
cm
rain 24hr
cm
rain mn
cm
humidity
%
barometer
mb
20260509014528 25 259 0.0 3.2 0.00 0.00 0.00 37 999.0
20260509014027 25 231 0.0 1.6 0.00 0.00 0.00 37 998.8
20260509013527 25 257 0.0 1.6 0.00 0.00 0.00 38 998.8
20260509013010 25 222 0.0 6.4 0.00 0.00 0.00 38 998.8
20260509012511 25 232 0.0 6.4 0.00 0.00 0.00 37 998.7
20260509012009 25 228 0.0 1.6 0.00 0.00 0.00 37 998.6
20260509011510 25 255 0.0 1.6 0.00 0.00 0.00 38 998.5
20260509011010 25 232 0.0 1.6 0.00 0.00 0.00 37 998.4
20260509010509 25 236 0.0 1.6 0.00 0.00 0.00 36 998.3
20260509010055 25 235 0.0 1.6 0.00 0.00 0.00 36 998.2
20260509005552 25 241 0.0 1.6 0.00 0.00 0.00 36 998.3
20260509005052 25 219 0.0 9.7 0.00 0.00 0.00 36 998.1
20260509004558 25 238 0.0 17.7 0.00 0.00 0.00 36 998.0
20260509004053 25 231 8.0 24.1 0.00 0.00 0.00 36 997.9
20260509003550 25 236 11.3 24.1 0.00 0.00 0.00 36 997.9
20260509003032 25 250 0.0 1.6 0.00 0.00 0.00 37 998.0
20260509002532 25 256 0.0 29.0 0.00 0.00 0.00 38 997.9
20260509002032 25 253 14.5 29.0 0.00 0.00 0.00 36 997.9
20260509001533 25 231 8.0 35.4 0.00 0.00 0.00 36 997.7
20260509001031 26 249 11.3 35.4 0.00 0.00 0.00 35 997.7
20260509000534 26 236 12.9 30.6 0.00 0.00 0.00 32 997.4
20260509000035 27 253 12.9 27.4 0.00 0.00 0.00 31 997.4
20260508235519 27 232 14.5 27.4 0.00 0.00 0.00 30 997.4
20260508235019 28 228 14.5 27.4 0.00 0.00 0.00 28 997.3
20260508234518 28 229 0.0 3.2 0.00 0.00 0.00 27 997.1
20260508234019 28 200 0.0 1.6 0.00 0.00 0.00 26 997.0
20260508233522 28 255 0.0 1.6 0.00 0.00 0.00 26 997.0
20260508233018 28 239 0.0 1.6 0.00 0.00 0.00 27 997.0
20260508232517 28 236 0.0 1.6 0.00 0.00 0.00 27 997.0
20260508232016 28 249 0.0 1.6 0.00 0.00 0.00 26 997.0
20260508231517 28 239 0.0 1.6 0.00 0.00 0.00 26 996.9
20260508231019 28 273 0.0 1.6 0.00 0.00 0.00 27 996.9
20260508230516 28 249 0.0 17.7 0.00 0.00 0.00 26 996.9
20260508230017 28 233 3.2 24.1 0.00 0.00 0.00 26 997.0
20260508225516 29 263 11.3 24.1 0.00 0.00 0.00 25 996.9
20260508225016 30 229 8.0 24.1 0.00 0.00 0.00 25 996.8
20260508224537 30 233 3.2 16.1 0.00 0.00 0.00 24 996.8
20260508224015 30 263 0.0 9.7 0.00 0.00 0.00 24 996.7
20260508223515 29 263 0.0 19.3 0.00 0.00 0.00 24 996.9
20260508223015 30 251 11.3 19.3 0.00 0.00 0.00 23 996.8
20260508222514 30 288 0.0 19.3 0.00 0.00 0.00 24 996.8
20260508222014 30 246 11.3 19.3 0.00 0.00 0.00 22 996.9
20260508221515 30 235 3.2 17.7 0.00 0.00 0.00 23 997.0
20260508221013 30 257 8.0 24.1 0.00 0.00 0.00 22 997.1
20260508220512 30 211 12.9 29.0 0.00 0.00 0.00 21 997.0
20260508220111 30 243 16.1 29.0 0.00 0.00 0.00 21 997.1
20260508215556 30 248 9.7 32.2 0.00 0.00 0.00 22 997.1
20260508215053 30 269 16.1 32.2 0.00 0.00 0.00 22 997.1
20260508214553 30 264 3.2 19.3 0.00 0.00 0.00 23 997.1
20260508214054 30 229 9.7 22.5 0.00 0.00 0.00 23 997.2
20260508213555 30 266 4.8 19.3 0.00 0.00 0.00 22 997.3
20260508213050 31 258 0.0 17.7 0.00 0.00 0.00 23 997.4
20260508212532 30 274 4.8 16.1 0.00 0.00 0.00 23 997.4
20260508212030 30 240 0.0 1.6 0.00 0.00 0.00 22 997.6
20260508211530 30 240 0.0 16.1 0.00 0.00 0.00 23 997.7
20260508211028 30 249 8.0 24.1 0.00 0.00 0.00 23 997.8
20260508210527 30 231 11.3 24.1 0.00 0.00 0.00 23 998.1
20260508210027 30 242 0.0 9.7 0.00 0.00 0.00 23 998.0
20260508205508 30 245 0.0 3.2 0.00 0.00 0.00 23 998.2
20260508205009 30 262 0.0 3.2 0.00 0.00 0.00 22 998.2
20260508204506 30 169 0.0 1.6 0.00 0.00 0.00 24 998.2
20260508204006 30 224 0.0 9.7 0.00 0.00 0.00 23 998.4
20260508203507 30 153 1.6 9.7 0.00 0.00 0.00 24 998.5
20260508203004 30 218 0.0 1.6 0.00 0.00 0.00 26 998.5
20260508202545 30 248 0.0 1.6 0.00 0.00 0.00 26 998.8
20260508202044 29 226 0.0 1.6 0.00 0.00 0.00 26 998.9
20260508201543 29 268 0.0 1.6 0.00 0.00 0.00 26 998.9
20260508201043 30 236 0.0 1.6 0.00 0.00 0.00 26 998.8
20260508200543 30 250 0.0 3.2 0.00 0.00 0.00 26 999.0
20260508200047 30 298 0.0 17.7 0.00 0.00 0.00 28 999.2
20260508195524 30 165 0.0 20.9 0.00 0.00 0.00 27 999.3
20260508195026 30 243 0.0 1.6 0.00 0.00 0.00 26 999.4
20260508194522 30 236 0.0 8.0 0.00 0.00 0.00 25 999.5
20260508194020 30 245 0.0 14.5 0.00 0.00 0.00 26 999.4
20260508193520 30 252 6.4 22.5 0.00 0.00 0.00 27 999.5
20260508193020 30 252 14.5 22.5 0.00 0.00 0.00 27 999.6
20260508192601 29 239 0.0 1.6 0.00 0.00 0.00 28 999.7
20260508192100 29 225 0.0 14.5 0.00 0.00 0.00 28 999.8
20260508191600 29 243 1.6 14.5 0.00 0.00 0.00 28 999.9
20260508191059 28 264 0.0 1.6 0.00 0.00 0.00 29 999.9
20260508190559 29 258 0.0 19.3 0.00 0.00 0.00 27 1000.0
20260508190057 30 239 0.0 19.3 0.00 0.00 0.00 27 1000.0
20260508185539 29 255 1.6 17.7 0.00 0.00 0.00 28 1000.1
20260508185039 30 252 6.4 20.9 0.00 0.00 0.00 28 1000.1
20260508184538 30 233 3.2 9.7 0.00 0.00 0.00 27 1000.2
20260508184036 29 87 0.0 11.3 0.00 0.00 0.00 28 1000.2
20260508183535 29 256 0.0 11.3 0.00 0.00 0.00 29 1000.5
20260508183039 28 294 0.0 1.6 0.00 0.00 0.00 30 1000.5
20260508182516 28 226 0.0 19.3 0.00 0.00 0.00 30 1000.6
20260508182014 28 225 0.0 1.6 0.00 0.00 0.00 30 1000.7
20260508181514 28 237 0.0 9.7 0.00 0.00 0.00 30 1000.8
20260508181016 28 160 0.0 9.7 0.00 0.00 0.00 31 1000.9
20260508180511 27 294 0.0 1.6 0.00 0.00 0.00 32 1001.0
20260508180010 27 96 0.0 1.6 0.00 0.00 0.00 32 1001.0
20260508175555 27 259 0.0 16.1 0.00 0.00 0.00 32 1001.1
20260508175055 27 256 4.8 16.1 0.00 0.00 0.00 32 1001.1
20260508174552 27 236 0.0 1.6 0.00 0.00 0.00 33 1001.1
20260508174052 27 242 0.0 1.6 0.00 0.00 0.00 33 1001.3
20260508173554 27 235 0.0 4.8 0.00 0.00 0.00 33 1001.3
20260508173050 27 236 0.0 14.5 0.00 0.00 0.00 32 1001.4
20260508172531 27 260 6.4 14.5 0.00 0.00 0.00 31 1001.5
20260508172030 27 240 0.0 1.6 0.00 0.00 0.00 34 1001.5
20260508171535 27 217 0.0 3.2 0.00 0.00 0.00 33 1001.6
20260508171032 27 255 0.0 3.2 0.00 0.00 0.00 32 1001.6
20260508170527 27 235 0.0 3.2 0.00 0.00 0.00 35 1001.7
20260508170028 26 229 0.0 3.2 0.00 0.00 0.00 34 1001.9
20260508165507 27 233 0.0 1.6 0.00 0.00 0.00 34 1002.0
20260508165006 26 249 0.0 1.6 0.00 0.00 0.00 36 1002.1
20260508164505 26 251 0.0 4.8 0.00 0.00 0.00 36 1002.1
20260508164004 26 273 0.0 4.8 0.00 0.00 0.00 37 1002.3
20260508163504 26 230 0.0 1.6 0.00 0.00 0.00 36 1002.4
20260508163002 26 253 0.0 1.6 0.00 0.00 0.00 37 1002.5
20260508162551 26 252 0.0 1.6 0.00 0.00 0.00 37 1002.5
20260508162050 25 266 0.0 1.6 0.00 0.00 0.00 38 1002.5
20260508161548 25 246 0.0 1.6 0.00 0.00 0.00 37 1002.6
20260508161048 25 232 0.0 1.6 0.00 0.00 0.00 38 1002.6
20260508160549 25 256 0.0 1.6 0.00 0.00 0.00 38 1002.8
20260508160047 25 252 0.0 1.6 0.00 0.00 0.00 38 1002.9
20260508155547 25 221 0.0 1.6 0.00 0.00 0.00 40 1002.9
20260508155045 25 267 0.0 1.6 0.00 0.00 0.00 41 1002.9
20260508154544 24 253 0.0 1.6 0.00 0.00 0.00 41 1003.0
20260508154041 23 246 0.0 1.6 0.00 0.00 0.00 42 1003.1
20260508153541 23 185 0.0 0.0 0.00 0.00 0.00 41 1003.0
20260508153040 23 253 0.0 1.6 0.00 0.00 0.00 44 1003.0
20260508152541 23 289 0.0 1.6 0.00 0.00 0.00 44 1003.0
20260508152037 23 262 0.0 0.0 0.00 0.00 0.00 46 1003.1
20260508151544 23 243 0.0 0.0 0.00 0.00 0.00 49 1003.2
20260508151036 22 284 0.0 0.0 0.00 0.00 0.00 48 1003.2
20260508150534 22 312 0.0 0.0 0.00 0.00 0.00 49 1003.2
20260508150040 22 293 0.0 0.0 0.00 0.00 0.00 49 1003.2
20260508145535 22 324 0.0 0.0 0.00 0.00 0.00 50 1003.2
20260508145031 22 257 0.0 0.0 0.00 0.00 0.00 51 1003.1
20260508144541 22 304 0.0 0.0 0.00 0.00 0.00 52 1003.0
20260508144029 22 240 0.0 0.0 0.00 0.00 0.00 52 1003.2
20260508143527 21 253 0.0 0.0 0.00 0.00 0.00 53 1003.1
20260508143035 21 250 0.0 0.0 0.00 0.00 0.00 54 1003.0
20260508142525 21 257 0.0 0.0 0.00 0.00 0.00 55 1003.0
20260508142008 21 243 0.0 0.0 0.00 0.00 0.00 55 1003.1
20260508141514 21 250 0.0 0.0 0.00 0.00 0.00 56 1003.1
20260508141011 21 259 0.0 0.0 0.00 0.00 0.00 55 1003.0
20260508140507 21 273 0.0 0.0 0.00 0.00 0.00 54 1003.0
20260508140006 21 65 0.0 0.0 0.00 0.00 0.00 55 1002.9
20260508135503 20 65 0.0 0.0 0.00 0.00 0.00 57 1002.9
20260508135045 20 65 0.0 0.0 0.00 0.00 0.00 57 1003.0
20260508134545 20 65 0.0 0.0 0.00 0.00 0.00 58 1003.0
20260508134042 19 65 0.0 0.0 0.00 0.00 0.00 59 1003.0
20260508133541 18 65 0.0 0.0 0.00 0.00 0.00 59 1002.9
20260508133044 18 65 0.0 0.0 0.00 0.00 0.00 60 1002.9
20260508132538 18 62 0.0 0.0 0.00 0.00 0.00 61 1002.8
20260508132019 18 62 0.0 0.0 0.00 0.00 0.00 62 1002.8
20260508131521 17 62 0.0 0.0 0.00 0.00 0.00 62 1002.8
20260508131022 17 61 0.0 0.0 0.00 0.00 0.00 61 1002.7
20260508130517 17 64 0.0 0.0 0.00 0.00 0.00 63 1002.6
20260508130023 17 63 0.0 0.0 0.00 0.00 0.00 63 1002.5
20260508125515 17 63 0.0 0.0 0.00 0.00 0.00 63 1002.5
20260508125058 -17 0.0 0.0 0.00 0.00 0.00 1002.4
20260508124602 -17 0.0 0.0 0.00 0.00 0.00 1002.3
20260508124059 -17 0.0 0.0 0.00 0.00 0.00 1002.4
20260508123558 -17 0.0 0.0 0.00 0.00 0.00 1002.3
20260508123058 -17 0.0 0.0 0.00 0.00 0.00 1002.3
20260508122557 -17 0.0 0.0 0.00 0.00 0.00 1002.3
20260508122040 -17 0.0 0.0 0.00 0.00 0.00 1002.3
20260508121540 -17 0.0 0.0 0.00 0.00 0.00 1002.3
20260508121039 -17 0.0 0.0 0.00 0.00 0.00 1002.3
20260508120540 -17 0.0 0.0 0.00 0.00 0.00 1002.2
20260508120041 -17 0.0 0.0 0.00 0.00 0.00 1002.2
20260508115539 -17 0.0 0.0 0.00 0.00 0.00 1002.2
20260508115021 -17 0.0 0.0 0.00 0.00 0.00 1002.2
20260508114531 -17 0.0 0.0 0.00 0.00 0.00 1002.1
20260508114025 -17 0.0 0.0 0.00 0.00 0.00 1002.2
20260508113522 -17 0.0 0.0 0.00 0.00 0.00 1002.1
20260508113034 -17 0.0 0.0 0.00 0.00 0.00 1002.1
20260508112521 -17 0.0 0.0 0.00 0.00 0.00 1002.0
20260508112004 -17 0.0 0.0 0.00 0.00 0.00 1002.0
20260508111504 -17 0.0 0.0 0.00 0.00 0.00 1002.0
20260508111004 -17 0.0 0.0 0.00 0.00 0.00 1001.9
20260508110503 -17 0.0 0.0 0.00 0.00 0.00 1001.9
20260508110003 -17 0.0 0.0 0.00 0.00 0.00 1001.9
20260508105503 -17 0.0 0.0 0.00 0.00 0.00 1001.9
20260508105048 -17 0.0 0.0 0.00 0.00 0.00 1001.9
20260508104554 -17 0.0 0.0 0.00 0.00 0.00 1001.9
20260508104045 -17 0.0 0.0 0.00 0.00 0.00 1001.9
20260508103545 -17 0.0 0.0 0.00 0.00 0.00 1001.9
20260508103044 -17 0.0 0.0 0.00 0.00 0.00 1002.0
20260508102545 18 252 0.0 0.0 0.00 0.00 0.00 63 1002.0
20260508102027 18 252 0.0 0.0 0.00 0.00 0.00 63 1002.0
20260508101535 18 252 0.0 0.0 0.00 0.00 0.00 62 1001.9
20260508101026 18 252 0.0 0.0 0.00 0.00 0.00 62 1001.9
20260508100526 18 252 0.0 0.0 0.00 0.00 0.00 62 1001.9
20260508100034 18 252 0.0 0.0 0.00 0.00 0.00 62 1001.8
20260508095526 18 251 0.0 0.0 0.00 0.00 0.00 62 1001.8
20260508095014 18 252 0.0 0.0 0.00 0.00 0.00 61 1001.8
20260508094514 18 252 0.0 0.0 0.00 0.00 0.00 61 1001.7
20260508094015 18 252 0.0 0.0 0.00 0.00 0.00 61 1001.7
20260508093514 18 252 0.0 0.0 0.00 0.00 0.00 61 1001.7
20260508093015 18 252 0.0 0.0 0.00 0.00 0.00 61 1001.6
20260508092513 18 251 0.0 0.0 0.00 0.00 0.00 61 1001.7
20260508092014 18 252 0.0 0.0 0.00 0.00 0.00 61 1001.7
20260508091513 18 252 0.0 0.0 0.00 0.00 0.00 61 1001.6
20260508091020 18 252 0.0 0.0 0.00 0.00 0.00 61 1001.5
20260508090517 18 252 0.0 0.0 0.00 0.00 0.00 60 1001.5
20260508090014 18 252 0.0 0.0 0.00 0.00 0.00 60 1001.6
20260508085513 18 252 0.0 0.0 0.00 0.00 0.00 59 1001.7
20260508085012 18 252 0.0 0.0 0.00 0.00 0.00 59 1001.7
20260508084512 18 252 0.0 0.0 0.00 0.00 0.00 58 1001.7
20260508084013 18 251 0.0 0.0 0.00 0.00 0.00 59 1001.7
20260508083512 19 252 0.0 0.0 0.00 0.00 0.00 58 1001.7
20260508083012 19 248 0.0 0.0 0.00 0.00 0.00 57 1001.7
20260508082517 20 262 0.0 0.0 0.00 0.00 0.00 56 1001.6
20260508082011 20 266 0.0 0.0 0.00 0.00 0.00 56 1001.7
20260508081514 20 262 0.0 0.0 0.00 0.00 0.00 56 1001.8
20260508081010 20 258 0.0 0.0 0.00 0.00 0.00 56 1001.8
20260508080511 20 257 0.0 0.0 0.00 0.00 0.00 55 1001.9
20260508080011 20 257 0.0 0.0 0.00 0.00 0.00 56 1001.9
20260508075512 20 257 0.0 0.0 0.00 0.00 0.00 56 1002.0
20260508075111 20 258 0.0 0.0 0.00 0.00 0.00 55 1002.0
20260508074604 20 257 0.0 1.6 0.00 0.00 0.00 55 1002.1
20260508074058 20 257 0.0 1.6 0.00 0.00 0.00 55 1002.2
20260508073559 20 240 0.0 1.6 0.00 0.00 0.00 54 1002.3
20260508073107 20 257 0.0 1.6 0.00 0.00 0.00 53 1002.3
20260508072559 21 233 0.0 1.6 0.00 0.00 0.00 52 1002.5
20260508072058 21 231 0.0 1.6 0.00 0.00 0.00 50 1002.6
20260508071601 21 195 0.0 0.0 0.00 0.00 0.00 49 1002.5
20260508071058 21 196 0.0 0.0 0.00 0.00 0.00 48 1002.6
20260508070557 21 160 0.0 3.2 0.00 0.00 0.00 48 1002.6
20260508065558 21 186 0.0 6.4 0.00 0.00 0.00 48 1002.6
20260508065057 21 74 0.0 6.4 0.00 0.00 0.00 49 1002.5
20260508064606 21 51 0.0 1.6 0.00 0.00 0.00 49 1002.6
20260508064056 21 68 0.0 1.6 0.00 0.00 0.00 49 1002.6
20260508063556 21 49 0.0 9.7 0.00 0.00 0.00 49 1002.5
20260508063156 21 68 3.2 9.7 0.00 0.00 0.00 48 1002.5
20260508062555 21 69 0.0 1.6 0.00 0.00 0.00 49 1002.4
20260508062055 21 80 0.0 1.6 0.00 0.00 0.00 51 1002.5
20260508061600 21 56 0.0 1.6 0.00 0.00 0.00 51 1002.6
20260508061055 21 18 0.0 0.0 0.00 0.00 0.00 51 1002.6
20260508060555 21 53 0.0 0.0 0.00 0.00 0.00 51 1002.6
20260508060155 21 61 0.0 3.2 0.00 0.00 0.00 50 1002.6
20260508055554 22 69 0.0 3.2 0.00 0.00 0.00 48 1002.6
20260508055054 21 166 0.0 3.2 0.00 0.00 0.00 49 1002.6
20260508054600 21 107 0.0 4.8 0.00 0.00 0.00 49 1002.7
20260508054036 21 79 0.0 9.7 0.00 0.00 0.00 50 1002.7
20260508053536 21 70 3.2 11.3 0.00 0.00 0.00 50 1002.6
20260508053036 21 96 0.0 16.1 0.00 0.00 0.00 51 1002.5
20260508052536 22 73 0.0 16.1 0.00 0.00 0.00 51 1002.4
20260508052035 22 57 0.0 8.0 0.00 0.00 0.00 51 1002.4
20260508051527 22 68 0.0 16.1 0.00 0.00 0.00 52 1002.3
20260508051024 22 70 0.0 16.1 0.00 0.00 0.00 52 1002.2
20260508050524 22 56 3.2 12.9 0.00 0.00 0.00 52 1002.1
20260508050034 22 98 1.6 14.5 0.00 0.00 0.00 53 1002.0
20260508045523 22 67 4.8 14.5 0.00 0.00 0.00 53 1001.9
20260508045023 22 63 3.2 14.5 0.00 0.00 0.00 54 1001.8
20260508044525 22 76 1.6 14.5 0.00 0.00 0.00 55 1001.7
20260508044022 22 104 1.6 16.1 0.00 0.00 0.00 56 1001.7
20260508043522 22 41 3.2 24.1 0.00 0.00 0.00 57 1001.6
20260508043031 22 6 6.4 24.1 0.00 0.00 0.00 57 1001.7
20260508042522 22 105 3.2 17.7 0.00 0.00 0.00 57 1001.5
20260508042022 22 63 4.8 20.9 0.00 0.00 0.00 57 1001.5
20260508041522 23 44 4.8 22.5 0.00 0.00 0.00 58 1001.3
20260508041022 23 114 4.8 22.5 0.00 0.00 0.00 57 1001.4
20260508040522 23 94 3.2 16.1 0.00 0.00 0.00 56 1001.3
20260508040021 23 60 3.2 17.7 0.00 0.00 0.00 55 1001.1
20260508035524 23 350 4.8 17.7 0.00 0.00 0.00 56 1000.8
20260508035021 24 27 1.6 14.5 0.00 0.00 0.00 58 1000.9
20260508034526 24 68 4.8 14.5 0.00 0.00 0.00 60 1000.8
20260508034020 24 38 3.2 16.1 0.00 0.00 0.00 57 1000.8
20260508033520 24 70 0.0 1.6 0.00 0.00 0.00 55 1000.7
20260508033020 24 72 0.0 3.2 0.00 0.00 0.00 58 1000.6
20260508032520 24 62 0.0 3.2 0.00 0.00 0.00 58 1000.5
20260508032020 24 121 0.0 9.7 0.00 0.00 0.00 59 1000.5
20260508031503 24 53 1.6 9.7 0.00 0.00 0.00 60 1000.4
20260508031002 24 69 3.2 11.3 0.00 0.00 0.00 60 1000.3
20260508030505 24 91 3.2 11.3 0.00 0.00 0.00 60 1000.2
20260508030002 25 96 0.0 1.6 0.00 0.00 0.00 59 1000.1
20260508025501 25 57 0.0 1.6 0.00 0.00 0.00 59 1000.1
20260508025001 25 60 0.0 1.6 0.00 0.00 0.00 58 1000.1
20260508024543 25 49 0.0 1.6 0.00 0.00 0.00 58 1000.1
20260508024043 25 67 0.0 1.6 0.00 0.00 0.00 57 1000.0
20260508023543 25 75 0.0 1.6 0.00 0.00 0.00 57 1000.0
20260508023042 25 71 0.0 1.6 0.00 0.00 0.00 57 999.9
20260508022542 25 68 0.0 1.6 0.00 0.00 0.00 56 999.8
20260508022042 25 62 0.0 1.6 0.00 0.00 0.00 56 999.7
20260508021523 25 63 0.0 1.6 0.00 0.00 0.00 55 999.7
20260508021028 25 62 0.0 1.6 0.00 0.00 0.00 55 999.7
20260508020523 25 70 0.0 1.6 0.00 0.00 0.00 53 999.7
20260508020023 26 70 0.0 1.6 0.00 0.00 0.00 52 999.5
20260508015523 26 76 0.0 1.6 0.00 0.00 0.00 51 999.4
20260508015028 26 185 0.0 1.6 0.00 0.00 0.00 51 999.4